User: anonymous   Login
Location: ČR
(50.0000°N, 15.0000°E)
Time: 14:28:23
(UTC+00:00)
Language:

Transit 4A - Orbit

View from above orbital plane
View from above orbital plane
View from above satellite
View from above satellite

Ground track
Ground track

The orbit data is extracted from the following two-line orbital elements,

1 00116U 61015A   21297.79989165 -.00000051  00000-0  19583-4 0  9993
2 00116  66.8094  79.7064 0073177  17.6781 342.6819 13.91799903 60595
Epoch (UTC): 24 October 2021 19:11:50
Eccentricity: 0.0073177
inclination: 66.8094°
perigee height: 869 km
apogee height: 976 km
right ascension of ascending node: 79.7064°
argument of perigee: 17.6781°
revolutions per day: 13.91799903
mean anomaly at epoch: 342.6819°
orbit number at epoch: 6059

The dashed part of the orbit path shows where the satellite is in the earth's shadow,  

DLR